Weather in Luzhny

Russia / Tula Oblast     53°20′24″N   37°02′08″E
В апреле 2022 года жителям России запретили посещать сайт meteo.paraplan.net по решению Генеральной прокуратуры. Аудитория сайта уменьшилась в 10 раз. Владельцы сайта не видят смысла в поддержке погодного сервера в таких условиях. Сайт будет закрыт в октябре.
temp.,
°C
wind,
m/s
gust,
m/s
humid.,
%
clouds,
%
prec.,
mm/h
press.,
hPa
HPBL,
m
25 september, sun
sun2500:00+6w6993100 3.8 10021001
03:00+5w5895100 5.6 1002896
06:00+5w5795100 0.4 1002867
09:00+6w5993100 0.8 10031001
12:00+6w71094100 0.2 1005750
15:00+7w71194100 0.2 1006870
18:00+6w71194100 0.6 10081022
21:00+6w71193100 0.8 10091012
26 september, mon
mon2600:00+6w51291100 0.0 1010722
03:00+6w41093100 0.1 1010442
06:00+6w41089100 0.1 1010343
09:00+7wsw4985100 0.1 1012317
12:00+11wnw586061 0.0 10121254
15:00+12wnw585364 0.1 10121789
18:00+9w33687 0.0 101331
21:00+7wsw227847 0.0 101420
27 september, tue
tue2700:00+6s2281100 0.0 101310
03:00+6sse3383100 0.0 101235
06:00+6ese228548 0.0 101223
09:00+9se468525 0.0 1011365
12:00+9ese5987100 0.1 1011431
15:00+9ese5786100 0.1 1011388
18:00+8ese4891100 0.0 1010372
21:00+8e51094100 0.4 1009402
28 september, wed
wed2800:00+8e61196100 4.3 1007408
03:00+8ese61198100 7.6 1005312
06:00+9ese51298100 2.3 1003405
09:00+10se61297100 3.9 1002459
12:00+11se51194100 1.6 1000554
15:00+11se5995100 2.5 1000500
18:00+11sse3898100 0.3 1001291
21:00+12sw3898100 0.5 1002266
29 september, thu
thu2900:00+11wsw51096100 0.2 1004456
03:00+11wsw41096100 0.2 1006543
06:00+9w4995100 0.0 1009295
09:00+11w5777100 0.0 1011846
12:00+13w35695 0.0 1013905
15:00+16wsw345914 0.0 10141147
18:00+13wsw2273100 0.0 101610
21:00+12se1174100 0.0 101710